| time (UTC) | temp C | wind direction | speed KPH | gust KPH | rain 1hr cm | rain 24hr cm | rain mn cm | humidity % | barometer mb |
| 20260507230043 | 11 | 240 | 6.4 | 0.0 | 0.00 | 0.00 | 0.00 | 62 | 1018.0 |
| 20260507223042 | 11 | 240 | 6.4 | 0.0 | 0.00 | 0.00 | 0.00 | 62 | 1018.0 |
| 20260507220043 | 11 | 210 | 11.3 | 0.0 | 0.00 | 0.00 | 0.00 | 62 | 1018.0 |
| 20260507213042 | 11 | 210 | 11.3 | 0.0 | 0.00 | 0.00 | 0.00 | 62 | 1018.0 |
| 20260507210043 | 11 | 230 | 11.3 | 0.0 | 0.00 | 0.00 | 0.00 | 66 | 1018.0 |
| 20260507203043 | 11 | 230 | 11.3 | 0.0 | 0.00 | 0.00 | 0.00 | 66 | 1018.0 |
| 20260507200043 | 10 | 230 | 11.3 | 0.0 | 0.00 | 0.00 | 0.00 | 76 | 1018.0 |
| 20260507193044 | 10 | 230 | 11.3 | 0.0 | 0.00 | 0.00 | 0.00 | 76 | 1018.0 |
| 20260507190044 | 13 | 260 | 6.4 | 0.0 | 0.00 | 0.00 | 0.00 | 58 | 1018.0 |
| 20260507180044 | 12 | 240 | 6.4 | 0.0 | 0.00 | 0.00 | 0.00 | 62 | 1017.0 |
| 20260507173044 | 12 | 240 | 6.4 | 0.0 | 0.00 | 0.00 | 0.00 | 62 | 1017.0 |
| 20260507170044 | 16 | 230 | 3.2 | 0.0 | 0.00 | 0.00 | 0.00 | 45 | 1017.0 |
| 20260507163046 | 16 | 230 | 3.2 | 0.0 | 0.00 | 0.00 | 0.00 | 45 | 1017.0 |
| 20260507160043 | 16 | 350 | 11.3 | 0.0 | 0.00 | 0.00 | 0.00 | 51 | 1017.0 |
| 20260507150043 | 17 | 300 | 14.5 | 0.0 | 0.00 | 0.00 | 0.00 | 48 | 1017.0 |
| 20260507143044 | 17 | 300 | 14.5 | 0.0 | 0.00 | 0.00 | 0.00 | 48 | 1017.0 |
| 20260507140049 | 15 | 310 | 14.5 | 0.0 | 0.00 | 0.00 | 0.00 | 55 | 1017.0 |
| 20260507133044 | 15 | 310 | 14.5 | 0.0 | 0.00 | 0.00 | 0.00 | 55 | 1017.0 |
| 20260507130044 | 16 | 300 | 20.9 | 0.0 | 0.00 | 0.00 | 0.00 | 59 | 1017.0 |
| 20260507123044 | 16 | 300 | 20.9 | 0.0 | 0.00 | 0.00 | 0.00 | 59 | 1017.0 |
| 20260507120043 | 15 | 270 | 17.7 | 0.0 | 0.00 | 0.00 | 0.00 | 63 | 1017.0 |
| 20260507113043 | 15 | 270 | 17.7 | 0.0 | 0.00 | 0.00 | 0.00 | 63 | 1017.0 |
| 20260507110044 | 17 | 260 | 17.7 | 0.0 | 0.00 | 0.00 | 0.00 | 48 | 1017.0 |
| 20260507100043 | 18 | 340 | 6.4 | 0.0 | 0.00 | 0.00 | 0.00 | 42 | 1017.0 |
| 20260507093046 | 20 | 30 | 6.4 | 0.0 | 0.00 | 0.00 | 0.00 | 39 | 1017.0 |
| 20260507090043 | 20 | 30 | 6.4 | 0.0 | 0.00 | 0.00 | 0.00 | 39 | 1018.0 |
| 20260507083044 | 17 | 300 | 3.2 | 0.0 | 0.00 | 0.00 | 0.00 | 45 | 1018.0 |
| 20260507080045 | 18 | 260 | 6.4 | 0.0 | 0.00 | 0.00 | 0.00 | 42 | 1018.0 |
| 20260507073043 | 18 | 220 | 14.5 | 0.0 | 0.00 | 0.00 | 0.00 | 45 | 1018.0 |
| 20260507070045 | 16 | 240 | 14.5 | 0.0 | 0.00 | 0.00 | 0.00 | 48 | 1018.0 |
| 20260507060043 | 15 | 220 | 11.3 | 0.0 | 0.00 | 0.00 | 0.00 | 58 | 1018.0 |
| 20260507053043 | 13 | 210 | 11.3 | 0.0 | 0.00 | 0.00 | 0.00 | 62 | 1018.0 |
| 20260507043045 | 11 | 220 | 11.3 | 0.0 | 0.00 | 0.00 | 0.00 | 71 | 1017.0 |
| 20260507040044 | 10 | 210 | 3.2 | 0.0 | 0.00 | 0.00 | 0.00 | 76 | 1017.0 |
| 20260507033044 | 10 | 210 | 3.2 | 0.0 | 0.00 | 0.00 | 0.00 | 76 | 1017.0 |
| 20260507030044 | 10 | 230 | 3.2 | 0.0 | 0.00 | 0.00 | 0.00 | 71 | 1016.0 |
| 20260507023045 | 10 | 230 | 3.2 | 0.0 | 0.00 | 0.00 | 0.00 | 71 | 1016.0 |
| 20260507020043 | 10 | 240 | 11.3 | 0.0 | 0.00 | 0.00 | 0.00 | 76 | 1016.0 |
| 20260507013044 | 10 | 240 | 11.3 | 0.0 | 0.00 | 0.00 | 0.00 | 76 | 1016.0 |
| 20260507010043 | 10 | 240 | 6.4 | 0.0 | 0.00 | 0.00 | 0.00 | 81 | 1016.0 |
| 20260507003045 | 10 | 240 | 6.4 | 0.0 | 0.00 | 0.00 | 0.00 | 81 | 1016.0 |
| 20260506233045 | 7 | 240 | 6.4 | 0.0 | 0.00 | 0.00 | 0.00 | 87 | 1015.0 |